Location: Domaschin
(49.7142°N, 14.8772°E)
Time: 02:08:57
(UTC+00:00)

Daily predictions for brighter satellites

Satellite Brightness Start Highest point End
(mag) Time Altitude Azimuth Time Altitude Azimuth Time Altitude Azimuth
CENTAUR R/B 3.3 02:02:59 46° ESE 02:02:59 46° ESE 02:09:08 10° NE
CZ-2C R/B 3.9 02:23:35 10° NNE 02:28:08 34° E 02:29:29 29° SE
ARIANE 5 R/B 4.3 02:23:27 10° NNE 02:25:18 23° N 02:25:18 23° N
ISS -0.4 02:36:08 12° E 02:36:08 12° E 02:36:32 10° E
Cosmos 1697 Rocket 3.2 02:35:00 48° NNE 02:36:10 58° NE 02:41:44 10° SE
Cosmos 2344 3.4 02:37:40 71° SW 02:38:38 87° NW 02:46:55 10° NE
ADEOS II 4.2 02:34:20 10° N 02:35:25 15° N 02:35:25 15° N
Lacrosse 4 Rocket 3.1 02:42:01 30° ENE 02:42:01 30° ENE 02:44:20 10° NE
COSMOS 2406 4.0 02:39:30 38° SSE 02:40:59 47° ESE 02:46:24 10° NE
USA 238 DEB 3.5 02:41:03 81° WNW 02:41:10 82° NW 02:48:10 10° NE
USA 238 3.5 02:41:08 81° WNW 02:41:16 82° NW 02:48:16 10° NE
NOSS 3-2 (A) 3.4 02:44:26 71° NNW 02:44:26 71° NNW 02:50:51 10° NE
Lacrosse 5 rocket 3.2 02:50:06 24° ESE 02:50:06 24° ESE 02:52:19 10° ENE
ATLAS 3B R/B 4.0 02:45:39 13° S 02:50:48 34° ESE 02:56:39 10° NE
PAYLOAD A 4.3 02:49:02 10° NNE 02:54:08 65° ESE 02:55:43 43° SSE
USA 234 3.4 02:51:49 10° ENE 02:58:13 59° NNW 02:59:22 52° WNW
Cosmos 1980 Rocket 3.0 02:54:36 16° NNW 02:58:52 48° NE 03:04:16 10° SE
ADEOS Rocket 2.6 02:56:32 10° SSE 03:02:01 85° WSW 03:07:43 10° NNW
ERS-2 3.7 03:02:38 10° SE 03:04:42 30° SE 03:04:42 30° SE
Cosmos 2180 Rocket 4.3 03:00:09 10° NNW 03:06:26 76° W 03:12:35 10° S
Nadezhda 4 Rocket 4.4 03:00:45 10° S 03:06:44 61° E 03:12:47 10° NNE
Cosmos 2228 4.0 03:02:33 10° N 03:06:47 47° ENE 03:11:01 10° SSE
Geosat 4.1 03:03:35 10° SE 03:08:35 74° ENE 03:10:57 32° NNW
Cosmos 1269 Rocket 3.9 03:09:19 74° SW 03:09:45 82° WNW 03:15:06 10° NNE
Cosmos 2360 4.1 03:13:18 26° NNW 03:16:40 87° ENE 03:22:21 10° SSE
Cosmos 1606 Rocket 4.2 03:12:49 10° N 03:17:14 57° ENE 03:21:39 10° SSE
Cosmos 1400 Rocket 4.2 03:15:34 10° N 03:19:18 38° ENE 03:22:57 10° SE
IDEFIX/ARIANE 42P 3.8 03:15:59 10° N 03:18:52 27° NNW 03:18:52 27° NNW
Intercosmos 24 3.8 03:24:21 10° N 03:28:21 76° E 03:31:53 10° SSE
Cosmos 2278 3.7 03:24:14 13° NNW 03:29:19 79° ENE 03:34:58 10° SSE
COSMO-SKYMED 1 4.0 03:25:56 10° SE 03:29:57 39° ENE 03:34:00 10° N
Cosmos 2322 Rocket 4.1 03:25:36 10° NNW 03:30:25 27° NE 03:35:11 10° E
MSX 4.2 03:26:28 10° N 03:31:48 41° WNW 03:32:03 41° WNW
Cosmos 1300 3.0 03:29:51 10° N 03:33:40 66° ENE 03:37:28 10° SSE
Cosmos 220 Rocket 3.9 03:32:31 47° NW 03:33:44 75° WSW 03:38:09 10° SSE
ALOS 2.9 03:29:21 10° NNE 03:33:59 58° E 03:38:34 10° S
In-Cosmos 22 4.3 03:35:42 44° W 03:35:59 44° WNW 03:41:13 10° N
CZ-4B R/B 1.4 03:33:02 10° SSE 03:36:30 84° ENE 03:37:09 57° N
Cosmos 1833 Rocket 2.6 03:33:50 23° SSW 03:37:29 88° WNW 03:43:11 10° NNE
Cosmos 1992 Rocket 3.8 03:34:01 13° NNW 03:38:42 79° WSW 03:43:54 10° SSE
Cosmos 1674 4.3 03:42:36 23° NNW 03:42:36 23° NNW 03:44:17 10° N
SL-14 R/B 3.4 03:36:50 10° S 03:40:48 74° E 03:44:50 10° NNE
Cosmos 1626 2.0 03:39:55 33° S 03:41:29 89° W 03:45:13 10° N
Cosmos 1689 Rocket 3.6 03:41:37 10° SE 03:44:21 37° ENE 03:47:06 10° N
deb Chang Zheng 4 4.0 03:41:18 10° NNE 03:45:31 62° ESE 03:49:45 10° S
NOSS 3-2 (C) 3.7 03:43:22 36° W 03:45:36 53° NW 03:52:18 10° NE
Cosmos 1536 Rocket 4.5 03:48:18 31° NW 03:48:18 31° NW 03:51:31 10° N
deb Kosmos-1763 3.9 03:46:47 38° SSW 03:48:05 88° ESE 03:51:42 10° NNE
Cosmos 2058 Rocket 3.5 03:47:07 10° N 03:51:38 64° ENE 03:56:04 10° SSE
Cosmos 2369 3.8 03:49:30 21° NW 03:53:07 50° WSW 03:58:32 10° S
CENTAUR R/B 2.9 03:50:11 31° W 03:53:08 52° NW 04:00:25 10° NE
Cosmos 1484 Rocket 2.6 03:52:37 10° NNE 03:56:31 85° WNW 04:00:19 10° SSW
Meteor 1-24 Rocket 3.8 03:51:18 10° S 03:56:58 85° E 04:02:53 10° NNE
CBERS 1 LM4 rocket 4.4 03:52:14 10° N 03:57:06 59° WNW 04:01:48 10° SSW
Cosmos 2082 Rocket 2.2 03:54:46 10° SSW 04:00:22 83° ESE 04:06:02 10° NNE
Cosmos 1461 3.1 03:57:50 21° SW 04:00:56 87° NW 04:05:42 10° NE
Cosmos 1892 Rocket 3.6 03:58:03 10° S 04:02:23 79° E 04:06:48 10° NNE
Cosmos 2026 Rocket 4.2 03:57:25 10° S 04:03:47 77° E 04:10:10 10° NNE
PSLV R/B 4.2 04:00:56 10° N 04:04:46 33° WNW 04:05:31 30° W
CZ-2C R/B 2.9 04:01:48 10° N 04:06:23 36° WNW 04:08:51 22° WSW
ARIANE 5 R/B 4.4 04:04:19 10° NNW 04:05:38 13° NW 04:05:38 13° NW
SL-16 R/B 3.1 04:01:25 10° NNW 04:06:57 50° NE 04:12:28 10° SE
Cosmos 2195 Rocket 4.4 04:02:32 10° S 04:08:45 87° W 04:14:57 10° N
USA 290 2.1 04:06:41 18° SSW 04:09:00 81° WNW 04:12:17 10° NNE
CREW DRAGON DEMO-1 DEB 2.7 04:08:42 46° W 04:09:27 75° SSW 04:12:27 10° ESE
ISS -3.7 04:09:06 33° WSW 04:10:28 77° SSE 04:13:50 10° ENE
Cosmos 2251 Rocket 3.5 04:06:11 10° SSW 04:11:33 84° WNW 04:16:56 10° NNE
Cosmos 2333 Rocket 4.4 04:12:21 10° N 04:16:20 19° NE 04:20:18 10° E
SKYMED 2 3.5 04:13:36 10° S 04:17:56 74° WSW 04:22:18 10° NNW
Lacrosse 4 Rocket 2.5 04:18:22 23° WNW 04:19:18 25° NW 04:22:42 10° NNE
Cosmos 1697 Rocket 3.5 04:16:51 18° WNW 04:19:47 28° WSW 04:24:29 10° SSW
PSLV R/B 3.9 04:16:27 10° S 04:20:39 78° WSW 04:24:54 10° NNW
Meteor 1-31 Rocket 2.7 04:17:20 10° N 04:21:15 63° WNW 04:25:08 10° SSW
Cosmos 1455 3.3 04:18:07 10° N 04:21:54 48° ENE 04:25:39 10° SSE
COSMOS 2406 3.8 04:21:37 17° WSW 04:25:27 37° NW 04:30:42 10° NNE
CZ-4B R/B 3.0 04:21:57 10° NNE 04:25:58 84° ESE 04:30:12 10° SSW
[s.n.46727] 2.8 04:25:26 21° SW 04:27:04 65° SSE 04:29:49 10° ENE
[s.n.46723] 2.8 04:25:27 20° SW 04:27:09 66° SSE 04:29:57 10° ENE
[s.n.46707] 2.8 04:25:36 21° SW 04:27:16 66° SSE 04:29:59 10° ENE
[s.n.46708] 2.8 04:25:41 21° SW 04:27:21 66° SSE 04:30:05 10° ENE
[s.n.46719] 2.8 04:25:47 21° SW 04:27:26 66° SSE 04:30:11 10° ENE
[s.n.46724] 2.8 04:25:52 21° SW 04:27:31 66° SSE 04:30:16 10° ENE
[s.n.46687] 2.8 04:25:57 21° SW 04:27:37 66° SSE 04:30:21 10° ENE
[s.n.46696] 2.8 04:26:02 21° SW 04:27:42 66° SSE 04:30:26 10° ENE
[s.n.46720] 2.8 04:26:08 21° SW 04:27:47 66° SSE 04:30:32 10° ENE
[s.n.46676] 2.8 04:26:12 20° SW 04:27:52 66° SSE 04:30:37 10° ENE
Lacrosse 5 rocket 1.2 04:25:46 21° W 04:27:58 56° NNW 04:31:47 10° NE
[s.n.46721] 2.8 04:26:18 20° SW 04:27:59 66° SSE 04:30:43 10° ENE
[s.n.46728] 2.8 04:26:23 20° SW 04:28:04 67° SSE 04:30:48 10° ENE
[s.n.46690] 2.7 04:26:28 20° SW 04:28:09 67° SSE 04:30:54 10° ENE
[s.n.46694] 2.8 04:26:32 20° SW 04:28:13 67° SSE 04:30:58 10° ENE
[s.n.46702] 2.7 04:26:39 20° SW 04:28:20 67° SSE 04:31:05 10° ENE
[s.n.46679] 2.8 04:26:42 20° SW 04:28:24 67° SSE 04:31:09 10° ENE
[s.n.46704] 2.8 04:26:44 20° SW 04:28:29 67° SSE 04:31:16 10° ENE
FENGYUN 3A 3.8 04:23:12 10° N 04:28:29 53° WNW 04:33:45 10° SW
[s.n.46712] 2.7 04:26:50 20° SW 04:28:32 67° SSE 04:31:17 10° ENE
Meteor 2-5 Rocket 4.0 04:23:10 10° SW 04:28:39 47° WNW 04:34:17 10° N
[s.n.46711] 2.7 04:26:58 20° SW 04:28:41 67° SSE 04:31:26 10° ENE
[s.n.46684] 2.7 04:27:00 20° SW 04:28:43 67° SSE 04:31:28 10° ENE
[s.n.46706] 2.7 04:27:09 20° SW 04:28:52 68° SSE 04:31:36 10° ENE
[s.n.46678] 2.8 04:27:07 20° SW 04:28:54 68° SSE 04:31:41 10° ENE
[s.n.46677] 2.7 04:27:17 20° SW 04:29:00 68° SSE 04:31:45 10° ENE
[s.n.46671] 2.7 04:27:22 20° SW 04:29:05 68° SSE 04:31:50 10° ENE
[s.n.46675] 2.7 04:27:27 20° SW 04:29:11 68° SSE 04:31:55 10° ENE
[s.n.46674] 2.7 04:27:33 20° SW 04:29:17 68° SSE 04:32:01 10° ENE
[s.n.46698] 2.7 04:27:38 20° SW 04:29:22 68° SSE 04:32:07 10° ENE
[s.n.46699] 2.8 04:27:39 19° SW 04:29:26 69° SSE 04:32:14 10° ENE
[s.n.46715] 2.7 04:27:48 20° SW 04:29:33 68° SSE 04:32:18 10° ENE
[s.n.46714] 2.7 04:27:53 20° SW 04:29:38 68° SSE 04:32:23 10° ENE
[s.n.46726] 2.7 04:27:59 20° SW 04:29:44 69° SSE 04:32:29 10° ENE
[s.n.46703] 2.7 04:28:04 20° SW 04:29:48 69° SSE 04:32:34 10° ENE
[s.n.46713] 2.7 04:28:09 20° SW 04:29:55 69° SSE 04:32:40 10° ENE
[s.n.46717] 2.7 04:28:14 19° SW 04:30:00 69° SSE 04:32:45 10° ENE
[s.n.46691] 2.7 04:28:15 19° SW 04:30:04 69° SSE 04:32:52 10° ENE
[s.n.46693] 2.7 04:28:25 19° SW 04:30:11 69° SSE 04:32:56 10° ENE
[s.n.46672] 2.7 04:28:30 19° SW 04:30:16 69° SSE 04:33:01 10° ENE
[s.n.46701] 2.7 04:28:35 19° SW 04:30:22 69° SSE 04:33:07 10° ENE
[s.n.46685] 2.7 04:28:40 19° SW 04:30:27 69° SSE 04:33:12 10° ENE
[s.n.46709] 2.7 04:28:46 19° SW 04:30:33 70° SSE 04:33:18 10° ENE
[s.n.46683] 2.7 04:28:50 19° SW 04:30:37 70° SSE 04:33:22 10° ENE
[s.n.46695] 2.7 04:28:55 19° SW 04:30:42 70° SSE 04:33:28 10° ENE
[s.n.46688] 2.7 04:29:02 19° SW 04:30:49 70° SSE 04:33:35 10° ENE
[s.n.46729] 2.7 04:29:06 19° SW 04:30:53 70° SSE 04:33:39 10° ENE
[s.n.46697] 2.7 04:29:09 19° SW 04:30:57 70° SSE 04:33:42 10° ENE
[s.n.46725] 2.7 04:29:14 19° SW 04:31:02 70° SSE 04:33:47 10° ENE
[s.n.46682] 2.7 04:29:19 19° SW 04:31:07 70° SSE 04:33:52 10° ENE
[s.n.46680] 2.7 04:29:25 19° SW 04:31:13 70° SSE 04:33:59 10° ENE
Cosmos 2360 Rocket 3.5 04:26:03 10° NNW 04:31:18 38° NE 04:36:30 10° ESE
[s.n.46718] 2.7 04:29:30 19° SW 04:31:19 71° SSE 04:34:05 10° ENE
[s.n.46710] 2.7 04:29:35 19° SW 04:31:24 71° SSE 04:34:09 10° ENE
[s.n.46673] 2.7 04:29:46 19° SW 04:31:35 71° SSE 04:34:20 10° ENE
[s.n.46700] 2.7 04:29:51 19° SW 04:31:40 71° SSE 04:34:26 10° ENE
[s.n.46705] 2.7 04:29:56 19° SW 04:31:46 71° SSE 04:34:31 10° ENE
[s.n.46692] 2.7 04:30:02 19° SW 04:31:52 71° SSE 04:34:38 10° ENE
[s.n.46686] 2.7 04:30:07 19° SW 04:31:57 71° SSE 04:34:43 10° ENE
[s.n.46716] 2.7 04:30:12 19° SW 04:32:02 71° SSE 04:34:48 10° ENE
[s.n.46722] 2.7 04:30:17 18° WSW 04:32:08 72° SSE 04:34:54 10° ENE
[s.n.46689] 2.7 04:30:23 18° WSW 04:32:13 72° SSE 04:35:00 10° ENE
[s.n.46681] 2.7 04:30:28 18° WSW 04:32:19 72° SSE 04:35:05 10° ENE
DNEPR-1 R/B 4.3 04:28:09 10° NW 04:33:31 61° NE 04:38:00 10° SE
Cosmos 1812 Rocket 4.4 04:30:49 10° N 04:35:05 53° ENE 04:39:19 10° SSE
SAR-Lupe-4 4.5 04:34:53 10° SSW 04:37:57 27° W 04:41:04 10° NW
Cosmos 1726 Rocket 4.4 04:35:09 10° NNW 04:39:00 29° W 04:42:51 10° SSW
ERS-2 3.9 04:37:55 10° SW 04:39:17 14° WSW 04:39:17 14° WSW
USA 234 3.8 04:34:29 10° ENE 04:40:42 47° N 04:46:42 11° WNW
ATLAS 3B R/B 2.6 04:34:34 10° SW 04:41:07 65° NW 04:47:48 10° NE
Cosmos 2098 Rocket 3.8 04:36:46 10° S 04:42:40 73° E 04:47:20 10° NNE
Cosmos 1980 Rocket 2.8 04:37:44 10° NW 04:42:41 33° WSW 04:47:37 10° SSW
Cosmos 2228 4.3 04:40:49 10° NW 04:44:00 20° W 04:47:12 10° SW
Abrixas rocket 3.9 04:43:59 12° WSW 04:45:23 17° SSW 04:47:19 10° SSE
ATLAS CENTAUR R/B 3.3 04:43:11 10° S 04:46:38 30° ESE 04:49:58 10° ENE
Envisat 4.1 04:42:41 10° NNE 04:47:38 49° E 04:52:33 10° S
Cosmos 1092 Rocket 4.3 04:42:05 10° SW 04:47:55 43° WNW 04:53:52 10° N
CZ-2C R/B 4.2 04:43:21 10° SE 04:48:32 40° ENE 04:53:45 10° N
ADEOS Rocket 4.3 04:46:01 10° WSW 04:48:36 13° W 04:51:14 10° NW
ADEOS 4.2 04:44:41 10° N 04:49:25 35° WNW 04:54:07 10° SW
Aureole 3 4.4 04:49:02 10° NNW 04:52:45 32° W 04:57:18 10° SSW
Cosmos 407 Rocket 3.6 04:48:35 10° SSW 04:53:42 80° ESE 04:58:54 10° NNE
Meteor 2-19 Rocket 4.4 04:47:59 10° S 04:54:04 83° W 05:00:11 10° N
Cosmos 2344 4.5 04:47:41 11° W 04:54:21 37° NNW 05:02:43 10° NE
CZ-3 R/B 4.2 04:42:06 10° WSW 04:55:10 22° SSW 05:01:04 10° SSE
Cosmos 1400 Rocket 4.1 04:52:35 10° NW 04:55:31 20° W 04:58:24 10° SW
Cosmos 1140 Rocket 3.9 04:51:21 10° SSW 04:56:26 69° ESE 05:01:33 10° NNE
Cosmos 2219 Rocket 4.0 04:52:32 10° NNW 04:57:19 27° NE 05:02:03 10° ESE
NOSS 8 (A) 4.1 04:56:59 10° SW 05:00:08 65° NW 05:03:05 10° NE
Cosmos 1607 4.5 04:57:37 10° NW 05:04:06 65° NE 05:10:32 10° SE
TELKOM 3 4.1 05:02:09 10° WSW 05:05:34 84° S 05:09:49 10° E
COSMO-SKYMED 1 3.6 05:02:36 10° SSW 05:06:14 26° W 05:09:53 10° NW
S3M 4.0 05:01:16 10° NNW 05:07:31 70° W 05:13:49 10° S
Cosmos 2292 Rocket 3.0 05:07:24 10° SSW 05:10:37 76° W 05:14:38 10° N
ALOS 3.5 05:07:31 10° NNW 05:11:02 21° WNW 05:14:32 10° WSW
Cosmos 1655 Rocket 4.1 05:05:17 10° S 05:11:35 83° W 05:18:00 10° N
Meteor 2-10 Rocket 3.9 05:09:16 10° NNW 05:13:53 38° W 05:18:33 10° SSW
Cosmos 2322 Rocket 2.2 05:09:20 10° NNW 05:15:00 71° WSW 05:20:37 10° SSE
Cosmos 2266 Rocket 4.1 05:10:48 10° S 05:16:50 87° E 05:22:58 10° N
